Simultaneous Nadir Overpasses (SNOs) Predictions

Prediction of SNOs between GOES-16 and METOP-B Satellite Orbit:

Table of predicted SNOs for the next 14.0 days since TLE Epoch: 10/12/2018
Index Date Time (GOES-16) GOES-16 Lat,Lon METOP-B Lat,Lon Distance(km) Time Diff (sec)
1 10/13/2018 02:40:07 0.01, -75.20 -0.56, -77.73 287.88 80
2 10/14/2018 02:16:47 -0.02, -75.20 0.51, -72.72 282.41 80
3 10/15/2018 14:35:39 0.02, -75.20 0.48, -77.29 237.11 80
4 10/16/2018 14:17:39 0.02, -75.21 -0.64, -72.29 332.80 80
5 10/18/2018 02:36:39 -0.03, -75.22 -0.39, -76.88 188.92 80
6 10/19/2018 02:13:19 -0.03, -75.23 0.73, -71.89 381.30 80
7 10/20/2018 14:32:11 0.03, -75.24 0.31, -76.44 137.24 80
8 10/21/2018 14:14:11 0.03, -75.26 -0.81, -71.45 433.36 80
9 10/23/2018 02:33:11 -0.02, -75.28 -0.16, -76.05 87.42 80
10 10/24/2018 02:12:31 -0.01, -75.30 0.91, -71.05 483.38 80
11 10/25/2018 14:28:43 0.01, -75.31 0.08, -75.62 34.50 80




NCC Satellite Simultaneous Nadir Overpasses (SNOs) Prediction Service
